User: anonymous   Login
Location: Unspecified
(0.0000°N, 0.0000°E)
Time: 19:08:31
(UTC+00:00)
Language:

Transit 2A Rocket - Orbit

View from above orbital plane
View from above orbital plane
View from above satellite
View from above satellite

Ground track
Ground track

The orbit data is extracted from the following two-line orbital elements,

1 00047U 60007C   15142.15497035  .00000158  00000-0  60042-4 0  9991
2 00047 066.6665 069.1826 0233903 220.3193 138.0366 14.41621535867932
Epoch (UTC): 22 May 2015 03:43:09
Eccentricity: 0.0233903
inclination: 66.6665°
perigee height: 586 km
apogee height: 920 km
right ascension of ascending node: 69.1826°
argument of perigee: 220.3193°
revolutions per day: 14.41621535
mean anomaly at epoch: 138.0366°
orbit number at epoch: 86793

The dashed part of the orbit path shows where the satellite is in the earth's shadow,  

DLR